Regional Weather Roundup
Issued by NWS Boston, MA

Current Version | Previous Version | Text Only | Print | Product List | Glossary On
Versions: 1 2 3 4 5 6 7 8 9 10 11 12 13 14 15 16 17 18 19 20 21 22 23 24 25 26 27
000 ASUS41 KBOX 250810 RWRBOX REGIONAL WEATHER ROUNDUP NATIONAL WEATHER SERVICE TAUNTON MA 400 AM EDT SAT MAR 25 2017 NOTE: "FAIR" INDICATES FEW OR NO CLOUDS BELOW 12,000 FEET WITH NO SIGNIFICANT WEATHER AND/OR OBSTRUCTIONS TO VISIBILITY. MAZALL-250900- EASTERN MASSACHUSETTS CITY SKY/WX TMP DP RH WIND PRES REMARKS BOSTON CLOUDY 46 34 62 NW7 30.07R BEVERLY LGT RAIN 38 35 89 N5 30.07R LAWRENCE LGT RAIN 36 34 92 N3 30.09R FOG BEDFORD CLOUDY 39 31 72 CALM 30.05R BLUE HILL N/A 42 31 64 W10 30.04R NORWOOD MOCLDY 40 32 73 SE3 30.05F MARSHFIELD MOCLDY 39 34 81 SW6 30.06S PLYMOUTH PTCLDY 39 33 79 SW3 30.06S TAUNTON CLOUDY 35 32 88 CALM 30.07R NEW BEDFORD CLOUDY 40 34 79 CALM 30.05S $$ MAZALL-250900- CAPE COD AND THE ISLANDS CITY SKY/WX TMP DP RH WIND PRES REMARKS FALMOUTH CLOUDY 41 37 87 MISG 30.07F HYANNIS MOCLDY 43 38 82 W7 30.05S CHATHAM CLOUDY 43 39 86 VRB7 30.07F PROVINCETOWN PTCLDY 40 37 89 SW9 30.06S NANTUCKET PTCLDY 43 39 86 W14 30.07R MARTHAS VNYRD CLOUDY 46 41 82 SW7 30.06F $$ MAZALL-250900- CENTRAL AND WESTERN MASSACHUSETTS CITY SKY/WX TMP DP RH WIND PRES REMARKS WORCESTER PTCLDY 42 32 67 SW7 30.04R FITCHBURG CLOUDY 37 35 92 CALM 30.05R ORANGE CLOUDY 34 34 100 CALM 30.05F SPRINGFIELD MOCLDY 34 30 83 CALM 30.05F WESTFIELD MOCLDY 34 31 88 CALM 30.06S NORTH ADAMS LGT RAIN 36 35 96 S3 30.05F FOG PITTSFIELD CLOUDY 36 34 92 SW6 30.03F WCI 31 $$ RIZALL-250900- RHODE ISLAND CITY SKY/WX TMP DP RH WIND PRES REMARKS PROVIDENCE MOCLDY 43 34 70 SW6 30.05F NEWPORT CLOUDY 42 37 82 VRB3 30.06R BLOCK ISLAND CLOUDY 42 40 92 SW15 30.08S SMITHFIELD MOCLDY 42 34 73 CALM 30.06R WESTERLY CLOUDY 42 38 85 SW3 30.07F $$ CTZALL-250900- CONNECTICUT CITY SKY/WX TMP DP RH WIND PRES REMARKS BRADLEY INTL CLOUDY 38 32 79 NE3 30.07F HARTFORD CLOUDY 40 34 79 CALM 30.07F BRIDGEPORT CLOUDY 44 36 73 SW3 30.06F DANBURY MOCLDY 36 32 85 CALM 30.06F GROTON MOCLDY 38 35 89 CALM 30.07S NEW HAVEN PTCLDY 41 36 82 CALM 30.07F CHESTER NOT AVBL MERIDEN PTCLDY 38 33 82 CALM 30.06S WILLIMANTIC CLOUDY 35 31 85 N5 30.08R WCI 31 OXFORD PTCLDY 43 30 61 W3 30.05F $$ MEZ002-015-021-024-NHZ003-005-008-011-012-014-VTZ005-008-250900- NORTHERN NEW ENGLAND CITY SKY/WX TMP DP RH WIND PRES REMARKS PORTLAND ME CLOUDY 34 31 88 N6 30.07R WCI 29 BANGOR ME CLOUDY 28 26 92 W7 30.05R WCI 21 CONCORD NH CLOUDY 34 32 92 N5 30.07S FOG WCI 30 MANCHESTER NH NOT AVBL NASHUA NH LGT RAIN 36 35 96 NW3 30.07 FOG PORTSMOUTH NH CLOUDY 34 34 97 W3 30.05S FOG JAFFREY NH NOT AVBL KEENE NH NOT AVBL BURLINGTON VT CLOUDY 34 31 88 NE3 30.14S MT. WASHINGTON BLWGSNOW 19 19 100 NW45 N/A VSB 0 WCI -3 $$ NYZ052-076-250900- EASTERN NEW YORK CITY SKY/WX TMP DP RH WIND PRES REMARKS ALBANY LGT RAIN 38 34 85 NW6 30.09R NEW YORK CITY CLOUDY 54 35 48 SW5 30.07S $$ ANZALL-250900- MARINE OBSERVATIONS STATION/POSITION TIME TEMP WIND PRES VSBY WAVE AIR SEA DIR/SP/G HT/PER (UTC) (F) (DEG/KT/KT) (MB) (MI) (FT/S) BOSTON BUOY 0650 43 40 220/ 4/ 6 1017.1 1/10 BUZZARDS BAY 0700 43 240/ 20/ 21 1018.3F NANTUCKET SOUND 0750 38 1017.8F 1/ 3 MASS BAY-STELLWA 0704 42 39 270/ 6/ 6 1016.6F 2/ 7 ISLE OF SHOALS 0700 36 300/ 7/ 8 1017.5F S OF BLOCK IS 0725 40 N/A 7/ 7 $$ ......................KEY......................... SKY/WX - SKY CONDITION/PRESENT WEATHER TMP - TEMPERATURE IN FAHRENHEIT DWPT - DEWPOINT IN FAHRENHEIT RH - RELATIVE HUMIDITY IN PERCENT WIND - DIRECTION AND SPEED IN MPH PRES - MEAN SEA LEVEL PRESSURE IN INCHES OF HG WCI - WIND CHILL INDEX VSB - VISIBILITY IN MILES HX - HEAT INDEX TC - TEMPERATURE IN CELSIUS VRB - VARIABLE WIND DIRECTION N/A - NOT AVAILABLE

USA.gov is the U.S. government's official web portal to all federal, state and local government web resources and services.